ATLAS CENTAUR 2 R/B, 694

Orbit data source: Space-Track

ATLAS CENTAUR 2 R/B, 694 is space debris in LEO originally from a launch on Wed, 27 Nov 1963 UTC via an ATLAS CENTAUR launch vehicle from the Air Force Eastern Test Range (AFETR). Debris objects in space refer to the collection of defunct objects orbiting the Earth. Examples of debris include non-operational satellites, rocket bodies, and fragments generated from explosions, collisions, or faulty payload assembly.

Loading next visibility...
Identifier
694, 1963-047A
Orbit
LEO
Country
Flag of USUS
Related business
Manufacturer
GD/Convair
Mission
Spacecraft
Bus & Motor
AC R&D, Unknown motor
Mass
4,300 kg wet, 900 kg dry
Launch date (UTC)
1963-11-27 (62 years ago)
Launch vehicle
ATLAS CENTAUR
Launch site
Air Force Eastern Test Range (AFETR)
Object type
Payload
Rocket body
Debris
Shape & HBR
Unknown
Radar Cross Section
Large (>1 m²)

Expand to show TLE details & history
Last TLE update: 5 hours ago

TLE from 5 hours ago
0 ATLAS CENTAUR 2 R/B
1   694U 63047A   26063.52755490  .00001934  00000-0  22660-3 0  9999
2   694  30.3520 224.4927 0547792  34.7925 328.7268 14.12049973130895
Epoch: 2026-03-04T12:39Z
TLE epoch observation values (Epoch: 2026-03-04T12:39:40.743Z)
Latitude
-0.00001°
Longitude
-127.71806°
Altitude
518.7 km
Speed
7.779 km/s
True Right ascension
14h 57m 58s
True Declination
0° 00' 00"
Sunlit
Object was in full shadow at epoch
Visualization orbit readout
Latitude
Unknown
Longitude
Unknown
Altitude
Unknown
Speed
Unknown
Apparent Right ascension
Unknown
Apparent Declination
Unknown
Sunlit
N/A
Visualization observer readout
Local Sidereal Time
21:51:23
Azimuth
Unknown
Elevation
Unknown
Doppler factor
Unknown
Orbital elements
Apogee altitude
1,252.434 km
Perigee altitude
459.858 km
Semi-major axis
7,234.283 km
Eccentricity
0.05478
Inclination
30.352°
RAAN
224.4927°
Arg. of periapsis
34.7925°
True anomaly
325.26826°
Mean anomaly
328.7268°
Eccentric anomaly
327.01822°
Mean motion
3.52736 °/min
Orbital period
102.06 mins
BSTAR
0.0002266
Loading maneuver chart data...
Computing Atmospheric mass density...

Documentation

Showing up to 5 results
|